Location: Unspecified
(0.0000°N, 0.0000°E)
Time: 17:06:32
(UTC+00:00)

Chandra X-Ray Observatory - Visible Passes

Search period start: 17 May 2022 00:00
Search period end: 27 May 2022 00:00
Orbit: 3432 x 145378 km, 46.1° (Epoch: 18 May)

Date Brightness Start Highest point End Pass type
(mag) Time Alt. Az. Time Alt. Az. Time Alt. Az.
17 May 13.4 22:24:18 10° NE 03:34:45 48° N 08:57:27 10° NW visible
18 May 8.2 23:27:54 10° SW 00:53:36 69° WSW 06:12:21 10° WNW visible
19 May 13.7 21:17:42 10° ENE 02:30:15 55° N 07:49:36 10° NW visible
20 May 7.0 22:59:11 10° NE 04:16:21 43° N 14:30:20 10° SSE visible
21 May 11.6 19:47:59 10° ENE 01:18:00 66° N 06:50:56 10° WNW visible
22 May 13.7 21:35:45 10° NE 02:46:23 51° N 08:05:05 10° NW visible
24 May 11.2 01:08:09 10° NE 03:15:24 16° NE 04:35:29 10° NE visible
24 May 13.2 20:29:26 10° ENE 01:45:22 59° N 07:07:56 10° WNW visible
25 May 13.3 21:57:46 10° NE 03:08:23 48° N 08:32:32 10° NW visible
